When you browse on this site, cookies collect data to enhance your experience and personalize the content and advertising you see.
Visit our Privacy Policy to learn more. By continuing to use the site, you agree to this use of cookies and data.
  • în România
  • Lista ţărilor
  • Pe 7 zile
  • Temperatura apei
  • Hartă satelitară
  • Meteo pe hartă
  • Widget-uri
  • user-avatar
    Intrare

    Meteo pe oră la Gruszow

    Astăzi, 20 Februarie, Miercuri

    Timp Temperatura Precipitaţii Vânt Presiune Umiditate
    00:00 +3°C° 0 mm 4 m/s 744 mmHg 83%
    01:00 +3°C° 0 mm 4 m/s 744 mmHg 82%
    02:00 +3°C° 0 mm 4 m/s 745 mmHg 83%
    03:00 +1°C° 0 mm 4 m/s 745 mmHg 84%
    04:00 +1°C° 0 mm 4 m/s 745 mmHg 86%
    05:00 +1°C° 0 mm 4 m/s 745 mmHg 86%
    06:00 +1°C° 0 mm 4 m/s 745 mmHg 86%
    07:00 +1°C° 0 mm 4 m/s 745 mmHg 86%
    08:00 +2°C° 0 mm 5 m/s 746 mmHg 81%
    09:00 +3°C° 0 mm 5 m/s 746 mmHg 76%
    10:00 +4°C° 0 mm 6 m/s 747 mmHg 71%
    11:00 +5°C° 0 mm 6 m/s 747 mmHg 68%
    12:00 +5°C° 0 mm 6 m/s 747 mmHg 64%
    13:00 +7°C° 0 mm 6 m/s 747 mmHg 61%
    14:00 +7°C° 0 mm 5 m/s 747 mmHg 62%
    15:00 +7°C° 0 mm 5 m/s 747 mmHg 63%
    16:00 +7°C° 0 mm 4 m/s 747 mmHg 64%
    17:00 +6°C° 0 mm 4 m/s 748 mmHg 69%
    18:00 +5°C° 0 mm 3 m/s 748 mmHg 74%
    19:00 +5°C° 0 mm 2 m/s 748 mmHg 79%
    20:00 +3°C° 0 mm 3 m/s 748 mmHg 80%
    21:00 +3°C° 0 mm 3 m/s 749 mmHg 81%
    22:00 +3°C° 0 mm 3 m/s 749 mmHg 82%
    23:00 +2°C° 0 mm 3 m/s 749 mmHg 81%

    Mâine, 21 Februarie, Joi

    Timp Temperatura Precipitaţii Vânt Presiune Umiditate
    00:00 +2°C° 0 mm 3 m/s 749 mmHg 81%
    01:00 +2°C° 0 mm 3 m/s 749 mmHg 80%
    02:00 +2°C° 0 mm 3 m/s 749 mmHg 81%
    03:00 +2°C° 0 mm 3 m/s 749 mmHg 81%
    04:00 +2°C° 0 mm 3 m/s 749 mmHg 81%
    05:00 +2°C° 0 mm 3 m/s 749 mmHg 80%
    06:00 +3°C° 0 mm 3 m/s 749 mmHg 78%
    07:00 +3°C° 0 mm 3 m/s 749 mmHg 77%
    08:00 +4°C° 0.2 mm 4 m/s 749 mmHg 76%
    09:00 +4°C° 0.2 mm 4 m/s 749 mmHg 76%
    10:00 +5°C° 0.2 mm 4 m/s 749 mmHg 75%
    11:00 +5°C° 0.5 mm 4 m/s 749 mmHg 74%
    12:00 +6°C° 0.5 mm 5 m/s 748 mmHg 73%
    13:00 +6°C° 0.5 mm 5 m/s 748 mmHg 72%
    14:00 +6°C° 0.1 mm 5 m/s 748 mmHg 71%
    15:00 +7°C° 0.1 mm 5 m/s 748 mmHg 71%
    16:00 +7°C° 0.1 mm 5 m/s 747 mmHg 70%
    17:00 +7°C° 0.2 mm 6 m/s 748 mmHg 74%
    18:00 +5°C° 0.2 mm 6 m/s 748 mmHg 79%
    19:00 +5°C° 0.2 mm 6 m/s 748 mmHg 83%
    20:00 +5°C° 0.1 mm 6 m/s 748 mmHg 85%
    21:00 +5°C° 0.1 mm 6 m/s 748 mmHg 86%
    22:00 +5°C° 0.1 mm 6 m/s 748 mmHg 88%
    23:00 +5°C° 0.1 mm 6 m/s 748 mmHg 88%

    Poimâine, 22 Februarie, Vineri

    Timp Temperatura Precipitaţii Vânt Presiune Umiditate
    00:00 +5°C° 0.1 mm 6 m/s 748 mmHg 89%
    01:00 +5°C° 0.1 mm 6 m/s 748 mmHg 90%
    02:00 +5°C° 0.2 mm 6 m/s 748 mmHg 90%
    03:00 +5°C° 0.2 mm 6 m/s 748 mmHg 89%
    04:00 +5°C° 0.2 mm 6 m/s 748 mmHg 89%
    05:00 +5°C° 0.2 mm 6 m/s 749 mmHg 89%
    06:00 +5°C° 0.2 mm 6 m/s 749 mmHg 88%
    07:00 +5°C° 0.2 mm 6 m/s 750 mmHg 88%
    08:00 +3°C° 0.1 mm 6 m/s 751 mmHg 86%
    09:00 +2°C° 0.1 mm 5 m/s 752 mmHg 85%
    10:00 +1°C° 0.1 mm 5 m/s 753 mmHg 83%
    11:00 +1°C° 0 mm 4 m/s 753 mmHg 78%
    12:00 +1°C° 0 mm 4 m/s 754 mmHg 73%
    13:00 +1°C° 0 mm 4 m/s 755 mmHg 68%
    14:00 +1°C° 0 mm 4 m/s 755 mmHg 64%
    15:00 +1°C° 0 mm 4 m/s 756 mmHg 60%
    16:00 +1°C° 0 mm 4 m/s 756 mmHg 56%
    17:00 0°C° 0 mm 4 m/s 757 mmHg 60%
    18:00 0°C° 0 mm 3 m/s 757 mmHg 64%
    19:00 -2°C° 0 mm 3 m/s 758 mmHg 68%
    20:00 -2°C° 0 mm 3 m/s 759 mmHg 68%
    21:00 -2°C° 0 mm 2 m/s 759 mmHg 67%
    22:00 -3°C° 0 mm 2 m/s 760 mmHg 67%
    23:00 -3°C° 0 mm 2 m/s 760 mmHg 66%

    23 Februarie, Sâmbătă

    Timp Temperatura Precipitaţii Vânt Presiune Umiditate
    00:00 -3°C° 0 mm 2 m/s 760 mmHg 65%
    01:00 -3°C° 0 mm 2 m/s 761 mmHg 64%
    02:00 -4°C° 0 mm 2 m/s 761 mmHg 62%
    03:00 -2°C° 0 mm 1 m/s 761 mmHg 61%
    04:00 -2°C° 0 mm 1 m/s 760 mmHg 60%
    05:00 -2°C° 0 mm 1 m/s 761 mmHg 60%
    06:00 -2°C° 0 mm 1 m/s 761 mmHg 60%
    07:00 -2°C° 0 mm 1 m/s 761 mmHg 60%
    08:00 -1°C° 0 mm 1 m/s 761 mmHg 53%
    09:00 -2°C° 0 mm 2 m/s 761 mmHg 45%
    10:00 -1°C° 0 mm 2 m/s 761 mmHg 37%
    11:00 +1°C° 0 mm 2 m/s 761 mmHg 34%
    12:00 +2°C° 0 mm 2 m/s 761 mmHg 31%
    13:00 +3°C° 0 mm 3 m/s 761 mmHg 28%
    14:00 +4°C° 0 mm 2 m/s 761 mmHg 30%
    15:00 +4°C° 0 mm 2 m/s 760 mmHg 32%
    16:00 +5°C° 0 mm 1 m/s 760 mmHg 34%
    17:00 +3°C° 0 mm 1 m/s 760 mmHg 37%
    18:00 +2°C° 0 mm 1 m/s 760 mmHg 41%
    19:00 -1°C° 0 mm 2 m/s 760 mmHg 45%
    20:00 +1°C° 0 mm 1 m/s 760 mmHg 45%
    21:00 +1°C° 0 mm 1 m/s 760 mmHg 46%
    22:00 +1°C° 0 mm 1 m/s 760 mmHg 46%
    23:00 +1°C° 0 mm 1 m/s 760 mmHg 46%

    24 Februarie, Duminică

    Timp Temperatura Precipitaţii Vânt Presiune Umiditate
    00:00 +1°C° 0 mm 1 m/s 759 mmHg 46%
    01:00 +1°C° 0 mm 1 m/s 759 mmHg 45%
    02:00 +1°C° 0 mm 1 m/s 759 mmHg 45%
    03:00 +1°C° 0 mm 1 m/s 759 mmHg 45%
    04:00 +1°C° 0 mm 1 m/s 758 mmHg 45%
    05:00 +1°C° 0 mm 1 m/s 758 mmHg 45%
    06:00 +1°C° 0 mm 1 m/s 758 mmHg 45%
    07:00 +1°C° 0 mm 1 m/s 758 mmHg 46%
    08:00 +3°C° 0 mm 1 m/s 758 mmHg 42%
    09:00 +5°C° 0 mm 1 m/s 758 mmHg 39%
    10:00 +6°C° 0 mm 1 m/s 758 mmHg 36%
    11:00 +7°C° 0 mm 1 m/s 758 mmHg 36%
    12:00 +8°C° 0 mm 2 m/s 757 mmHg 36%
    13:00 +9°C° 0 mm 2 m/s 757 mmHg 36%
    14:00 +8°C° 0 mm 2 m/s 757 mmHg 41%
    15:00 +8°C° 0 mm 2 m/s 756 mmHg 46%
    16:00 +8°C° 0 mm 1 m/s 756 mmHg 51%
    17:00 +7°C° 0 mm 1 m/s 756 mmHg 54%
    18:00 +5°C° 0 mm 1 m/s 756 mmHg 56%
    19:00 +4°C° 0 mm 1 m/s 756 mmHg 59%
    20:00 +4°C° 0 mm 1 m/s 756 mmHg 60%
    21:00 +4°C° 0 mm 1 m/s 756 mmHg 61%
    22:00 +4°C° 0 mm 1 m/s 756 mmHg 62%
    23:00 +4°C° 0 mm 1 m/s 756 mmHg 62%

    25 Februarie, Luni

    Timp Temperatura Precipitaţii Vânt Presiune Umiditate
    00:00 +4°C° 0 mm 1 m/s 756 mmHg 63%
    01:00 +4°C° 0 mm 1 m/s 756 mmHg 63%
    02:00 +4°C° 0 mm 1 m/s 755 mmHg 64%
    03:00 +4°C° 0 mm 1 m/s 755 mmHg 64%
    04:00 +4°C° 0 mm 1 m/s 755 mmHg 65%
    05:00 +4°C° 0 mm 1 m/s 755 mmHg 66%
    06:00 +3°C° 0 mm 2 m/s 755 mmHg 68%
    07:00 +3°C° 0 mm 2 m/s 755 mmHg 69%
    08:00 +4°C° 0 mm 2 m/s 755 mmHg 66%
    09:00 +4°C° 0 mm 3 m/s 756 mmHg 62%
    10:00 +7°C° 0 mm 3 m/s 756 mmHg 59%
    11:00 +7°C° 0 mm 4 m/s 756 mmHg 58%
    12:00 +8°C° 0 mm 4 m/s 755 mmHg 56%
    13:00 +8°C° 0 mm 4 m/s 755 mmHg 55%
    14:00 +8°C° 0 mm 4 m/s 755 mmHg 57%
    15:00 +8°C° 0 mm 4 m/s 755 mmHg 60%
    16:00 +8°C° 0 mm 4 m/s 755 mmHg 62%
    17:00 +8°C° 0 mm 3 m/s 755 mmHg 69%
    18:00 +6°C° 0 mm 2 m/s 755 mmHg 76%
    19:00 +5°C° 0 mm 2 m/s 756 mmHg 82%
    20:00 +5°C° 0 mm 2 m/s 756 mmHg 84%
    21:00 +4°C° 0 mm 2 m/s 756 mmHg 86%
    22:00 +4°C° 0 mm 2 m/s 756 mmHg 88%
    23:00 +4°C° 0 mm 2 m/s 756 mmHg 89%
    Arată mai mult